Preview of NWS' New Version of Forecast
This preview is not operational and should not be used for support decisions.
Latest weather observations around

INDEPENDENCE (KIDP)

Using English Units (Switch to International System of Units)
Date/ Time (CDT) Wind (mph) Vis. (mi) Weather Sky Cond. Temp (°F) Rel. Humidity Wind Chill (°F) Heat Index (°F) Pressure Precip. (in)
Air Dwpt 6 hour Altimeter (inHg) Sea level (inHg) 1 hr 3 hr 6 hr
Max Min
Jul 22 01:15 N 7 10 Cloudy BKN012 OVC019 73 70     91%   74 30        
Jul 22 00:55 N 6 10 Cloudy OVC012 73 71     93%   74 30        
Jul 22 00:35 N 3 10   OVC014 73 71     94%   74 29.99        
Jul 22 00:15 N 5 10 Mostly Cloudy BKN016 BKN020 73 71     93%   74 29.99        
Jul 21 23:55 N 6 10 Light Rain SCT070 SCT075 73 72     95%   75 29.99        
Jul 21 23:35 N 7 10 Thunderstorms and Light Rain SCT012 SCT070 SCT120 74 72     94%   75 30.01        
Jul 21 23:15 Calm 7 Light Rain SCT012 BKN021 OVC100 73 71     92%   75 30        
Jul 21 22:55 SSE 6 10 Cloudy SCT023 SCT050 OVC060 73 70     90%   75 29.97        
Jul 21 22:35 NW 6 10   BKN047 OVC060 73 71     92%   75 29.96        
Jul 21 22:15 E 8 10 Thunderstorms and Rain SCT024 BKN045 OVC075 73 70     91%   75 29.95        
Jul 21 21:55 NNE 10 10 Thunderstorms and Heavy Rain SCT012 BKN046 OVC075 75 72     91%   76 29.89   1    
Jul 21 21:35 NNW 14 1 Thunderstorms and Heavy Rain and Fog/Mist BKN006 OVC013 75 70     83%   76 29.92   1    
Jul 21 21:15   1 Thunderstorms and Heavy Rain and Fog/Mist BKN008 OVC025 74 70     87%   75 29.91   0    
Jul 21 20:55 SE 9 10 Thunderstorms CLR 86 76     74%   96 29.83        
Jul 21 20:35 S 8 10 Clear CLR 86 76     73%   96 29.84        
Jul 21 20:15 S 8 10 Partly Cloudy SCT060 SCT075 SCT110 88 76     69%   99 29.85        
Jul 21 19:55 SSE 8 10 Mostly Cloudy BKN060 BKN075 89 77     67%   102 29.86        
Jul 21 19:35 SSE 5 10 Partly Cloudy SCT060 90 76     65%   102 29.88        
Jul 21 19:15 SSE 6 10 Partly Cloudy SCT060 91 76     63%   104 29.88        
Jul 21 18:55 SE 8 10 Partly Cloudy SCT060 91 77     63%   104 29.86        
Jul 21 18:35 SE 8 10 Mostly Cloudy BKN050 92 77     62%   107 29.86        
Jul 21 18:15 SSE 9 10 Mostly Cloudy BKN050 92 76     60%   104 29.87        
Jul 21 17:55 SE 10 10 Clear CLR 93 75     56%   106 29.88        
Jul 21 17:35 SSE 3 10 Clear CLR 93 75     55%   105 29.89        
Jul 21 17:15 SSE 6 10 Clear CLR 93 76     58%   105 29.89        
Jul 21 16:55 SSE 3 10 Clear CLR 92 76     60%   106 29.9        
Jul 21 16:35 S 7 10 Clear CLR 92 75     58%   103 29.9        
Jul 21 16:15 SSE 5 10 Clear CLR 92 75     58%   103 29.9        
Jul 21 15:55 W 3 10 Clear CLR 92 75     59%   104 29.91        
Jul 21 15:35 SW 7 10 Clear CLR 92 75     59%   103 29.91        
Jul 21 15:15 SW 5 10 Clear CLR 90 74     58%   100 29.92        
Jul 21 14:55 SSW 8 10 Clear CLR 92 75     58%   102 29.92        
Jul 21 14:35 WSW 9 10 Clear CLR 92 75     57%   103 29.92        
Jul 21 14:15 S 8 10 Clear CLR 91 74     58%   100 29.93        
Jul 21 13:55 SSW 12 10 Clear CLR 89 73     59%   98 29.92        
Jul 21 13:35 SSW 9 10 Partly Cloudy SCT035 90 75     61%   100 29.93        
Jul 21 13:15 S 9 10 Clear CLR 89 75     64%   98 29.92        
Jul 21 12:55 SSE 10 10 Clear CLR 88 75     64%   98 29.92        
Jul 21 12:35 S 7 10 Clear CLR 88 74     64%   97 29.92        
Jul 21 12:15 SW 9 10 Clear CLR 88 73     62%   96 29.92        
Jul 21 11:55 SSW 9 10 Clear CLR 87 74     65%   96 29.93        
Jul 21 11:35 SSE 12 10 Clear CLR 87 74     66%   96 29.93        
Jul 21 11:15 SSW 11 10 Clear CLR 87 74     65%   95 29.94        
Jul 21 10:55 S 14 10 Clear CLR 87 74     67%   95 29.93        
Jul 21 10:35 S 12 10 Clear CLR 85 73     68%   92 29.93        
Jul 21 10:15 S 13 10 Clear CLR 84 74     72%   92 29.93        
Jul 21 09:55 S 9 10 Clear CLR 84 74     74%   91 29.93        
Jul 21 09:35 SSE 10 10 Clear CLR 83 74     75%   90 29.93        
Jul 21 09:15 SE 10 10 Clear CLR 82 75     78%   89 29.94        
Jul 21 08:55 ESE 9 10 Clear CLR 81 74     80%   85 29.95        
Jul 21 08:35 ESE 9 10 Clear CLR 80 73     81%   84 29.95        
Jul 21 08:15 SE 9 10 Clear CLR 80 73     80%   84 29.96        
Jul 21 07:55 SE 9 10 Clear CLR 80 73     81%   84 29.95        
Jul 21 07:35 SE 9 10 Clear CLR 79 74     85%   82 29.96        
Jul 21 07:15 SE 8 10 Clear CLR 77 73     88%   79 29.96        
Jul 21 06:55 ESE 8 10 Clear CLR 76 73     91%   77 29.96        
Jul 21 06:35 E 8 10 Clear CLR 73 72     94%   75 29.96        
Jul 21 06:15 SSE 6 10 Clear CLR 74 72     92%   76 29.94        
Jul 21 05:55 S 3 10 Clear CLR 75 72     91%   76 29.94        
Jul 21 05:35 SSW 6 10 Clear CLR 76 72     88%   78 29.94        
Jul 21 05:15 S 9 10 Clear CLR 77 72     87%   78 29.92        
Jul 21 04:55 S 11 10 Clear CLR 77 73     87%   78 29.91        
Jul 21 04:35 S 14 10 Clear CLR 77 73     88%   78 29.9        
Jul 21 04:15 S 11 10 Clear CLR 77 73     89%   78 29.91        
Jul 21 03:55 S 10 10 Clear CLR 76 73     89%   78 29.91        
Jul 21 03:35 S 12 10 Clear CLR 77 73     87%   79 29.91        
Jul 21 03:15 SSE 8 10 Clear CLR 77 73     87%   79 29.92        
Jul 21 02:55 SSE 8 10 Clear CLR 78 73     86%   79 29.91        
Jul 21 02:35 SSE 9 10 Clear CLR 78 73     86%   79 29.91        
Jul 21 02:15 SSE 9 10 Clear CLR 78 73     85%   80 29.91        
Jul 21 01:55 S 9 10 Clear CLR 78 73     85%   80 29.91        
Jul 21 01:35 SSE 9 10 Clear CLR 79 73     84%   82 29.92        
Jul 21 01:15 SSE 7 10 Clear CLR 79 74     83%   83 29.91        
Jul 21 00:55 S 9 10 Clear CLR 80 74     82%   83 29.91        
Jul 21 00:35 S 8 10 Clear CLR 80 74     82%   84 29.91        
Jul 21 00:15 S 8 10 Clear CLR 80 74     82%   84 29.91        
Jul 20 23:55 S 7 10 Clear CLR 80 74     81%   85 29.9        
Jul 20 23:35 S 8 10 Clear CLR 81 74     79%   87 29.89        
Jul 20 23:15 S 10 10 Clear CLR 82 74     77%   88 29.88        
Jul 20 22:55 S 12 10 Clear CLR 83 74     75%   90 29.86        
Jul 20 22:35 S 12 10 Clear CLR 83 74     74%   90 29.86        
Jul 20 22:15 S 13 10 Clear CLR 83 74     75%   90 29.85        
Jul 20 21:55 S 9 10 Clear CLR 84 74     74%   91 29.85        
Jul 20 21:35 S 10 10 Clear CLR 85 74     71%   92 29.84        
Jul 20 21:15 S 11 10 Clear CLR 85 74     70%   93 29.83        
Jul 20 20:55 S 12 10 Clear CLR 85 74     70%   94 29.84        
Jul 20 20:35 SSE 10 10 Clear CLR 87 75     68%   95 29.84        
Jul 20 20:15 SSE 9 10 Clear CLR 88 75     65%   98 29.84        
Jul 20 19:55 SSE 9 10 Clear CLR 90 76     64%   101 29.84        
Jul 20 19:35 S 12 10 Clear CLR 91 74     58%   102 29.82        
Jul 20 19:15 S 14 10 Clear CLR 93 73     53%   102 29.82        
Jul 20 18:55 S 13 10 Clear CLR 93 74     53%   103 29.82        
Jul 20 18:35 S 12 10 Clear CLR 94 74     53%   105 29.82        
Jul 20 18:15 S 18 10 Clear CLR 94 74     51%   104 29.82        
Jul 20 17:55 S 17 10 Clear CLR 95 75     54%   107 29.81        
Jul 20 17:35 S 15 10 Clear CLR 96 76     53%   109 29.82        
Jul 20 17:15 S 16 10 Clear CLR 95 75     53%   107 29.83        
Jul 20 16:55 S 17 10 Clear CLR 94 74     53%   106 29.83        
Jul 20 16:35 S 22 10 Clear and Windy CLR 96 76     53%   109 29.83        
Jul 20 16:15 S 18 10 Clear CLR 96 75     52%   109 29.83        
Jul 20 15:55 S 18 10 Clear CLR 96 76     53%   109 29.84        
Jul 20 15:35 S 16 10 Clear CLR 96 77     55%   110 29.84        
Jul 20 15:15 S 20 10 Clear and Windy CLR 95 76     53%   108 29.85        
Jul 20 14:55 S 18 10 Clear CLR 95 76     55%   109 29.85        
Jul 20 14:35 S 22 10 Clear and Windy CLR 95 76     55%   109 29.85        
Jul 20 14:15 S 16 10 Clear CLR 94 76     56%   107 29.85        
Jul 20 13:55 S 18 10 Clear CLR 94 76     55%   107 29.86        
Jul 20 13:35 SSW 17 10 Clear CLR 94 76     57%   106 29.87        
Jul 20 13:15 S 18 10 Clear CLR 93 76     58%   106 29.88        
Jul 20 12:55 S 17 10 Clear   92 76     59%   105 29.88        
Jul 20 12:35 S 18 10 Clear   92 76     60%   104 29.88        
Jul 20 12:15 S 20 10 Clear and Windy   91 76     62%   103 29.88        
Jul 20 11:55 S 18 10 Clear   90 76     62%   102 29.89        
Jul 20 11:35 SSW 20 10 Clear and Windy CLR 90 76     63%   101 29.88        
Jul 20 11:15 S 17 10 Clear CLR 88 75     64%   98 29.88        
Jul 20 10:55 S 21 10 Clear and Windy CLR 88 75     65%   98 29.88        
Jul 20 10:35 S 23 10 Clear and Windy CLR 87 74     66%   96 29.88        
Jul 20 10:15 S 20 10 Clear and Windy CLR 86 75     71%   94 29.88        
Jul 20 09:55 S 20 10 Clear and Windy CLR 85 74     71%   93 29.89        
Jul 20 09:35 S 21 10 Clear and Windy CLR 84 74     73%   91 29.89        
Jul 20 09:15 S 18 10 Clear CLR 83 74     73%   89 29.9        
Jul 20 08:55 S 21 10 Clear and Windy CLR 82 73     75%   88 29.9        
Jul 20 08:35 S 17 10 Clear CLR 81 73     77%   86 29.9        
Jul 20 08:15 S 20 10 Clear and Windy CLR 80 73     79%   85 29.9        
Jul 20 07:55 S 17 10 Clear CLR 80 73     80%   83 29.9        
Jul 20 07:35 S 17 10 Clear CLR 79 72     82%   82 29.9        
Jul 20 07:15 S 13 10 Clear CLR 77 72     85%   79 29.89        
Jul 20 06:55 SSE 13 10 Clear CLR 76 72     87%   78 29.9        
Jul 20 06:35 SSE 10 10 Clear CLR 76 72     87%   78 29.9        
Jul 20 06:15 SSE 12 10 Clear CLR 76 72     88%   77 29.9        
Jul 20 05:55 S 9 10 Clear CLR 76 72     87%   78 29.89        
Jul 20 05:35 S 9 10 Clear CLR 76 72     88%   77 29.89        
Jul 20 05:15 S 10 10 Clear CLR 76 72     87%   78 29.89        
Jul 20 04:55 SSE 10 10 Clear CLR 76 72     85%   78 29.89        
Jul 20 04:35 S 10 10 Clear CLR 77 72     85%   78 29.89        
Jul 20 04:15 S 10 10 Clear CLR 77 72     84%   78 29.89        
Jul 20 03:55 S 10 10 Clear CLR 77 72     84%   79 29.89        
Jul 20 03:35 S 9 10 Clear CLR 78 72     83%   79 29.88        
Jul 20 03:15 S 10 10 Clear CLR 78 72     82%   79 29.88        
Jul 20 02:55 S 8 10 Clear CLR 78 72     81%   80 29.88        
Jul 20 02:35 S 10 10 Clear CLR 79 72     79%   82 29.88        
Jul 20 02:15 S 11 10 Clear CLR 80 72     77%   83 29.88        
Jul 20 01:55 S 15 10 Clear CLR 80 72     76%   84 29.87        
Jul 20 01:35 S 15 10 Clear CLR 80 72     75%   84 29.88        
Jul 20 01:15 S 14 10 Clear CLR 81 72     75%   85 29.88        
Jul 20 00:55 S 15 10 Clear CLR 81 72     74%   86 29.88        
Jul 20 00:35 S 13 10 Clear CLR 81 72     74%   86 29.88        
Jul 20 00:15 S 16 10 Clear CLR 82 72     73%   87 29.88        
Jul 19 23:55 S 16 10 Clear CLR 82 72     73%   87 29.88        
Jul 19 23:35 S 15 10 Clear CLR 83 73     72%   88 29.88        
Jul 19 23:15 S 16 10 Clear CLR 83 73     71%   89 29.88        
Jul 19 22:55 S 17 10 Clear CLR 84 73     70%   90 29.88        
Jul 19 22:35 S 15 10 Clear CLR 84 73     71%   91 29.88        
Jul 19 22:15 S 13 10 Clear CLR 84 74     71%   91 29.88        
Jul 19 21:55 S 13 10 Clear CLR 85 74     71%   92 29.87        
Jul 19 21:35 S 12 10 Clear CLR 85 74     70%   93 29.86        
Jul 19 21:15 S 14 10 Clear CLR 86 74     69%   94 29.85        
Jul 19 20:55 SSE 13 10 Clear CLR 86 75     69%   95 29.85        
Jul 19 20:35 S 15 10 Clear CLR 87 75     68%   97 29.84        
Jul 19 20:15 S 13 10 Clear CLR 88 76     67%   99 29.84        
Jul 19 19:55 S 16 10 Clear CLR 90 76     64%   101 29.83        
Jul 19 19:35 S 15 10 Clear CLR 91 76     63%   103 29.83        
Jul 19 19:15 S 14 10 Clear CLR 92 76     60%   105 29.83        
Jul 19 18:55 S 14 10 Clear CLR 93 74     54%   104 29.83        
Jul 19 18:35 S 18 10 Clear CLR 94 74     52%   104 29.83        
Jul 19 18:15 S 18 10 Clear CLR 95 74     52%   106 29.83        
Jul 19 17:55 S 18 10 Clear CLR 95 75     54%   107 29.84        
Jul 19 17:35 S 18 10 Clear CLR 95 74     51%   106 29.83        
Jul 19 17:15 S 18 10 Clear CLR 95 75     51%   107 29.84        
Jul 19 16:55 S 21 10 Clear and Windy CLR 96 76     53%   109 29.84        
Jul 19 16:35 S 18 10 Clear CLR 96 76     54%   110 29.85        
Jul 19 16:15 S 18 10 Clear CLR 95 76     55%   110 29.85        
Jul 19 15:55 SSE 18 10 Clear CLR 96 77     55%   111 29.85        
Jul 19 15:35 S 18 10 Clear CLR 96 76     54%   110 29.86        
Jul 19 15:15 S 20 10 Clear and Windy CLR 96 77     55%   111 29.86        
Jul 19 14:55 S 18 10 Clear CLR 94 76     56%   108 29.86        
Jul 19 14:35 S 21 10 Clear and Windy CLR 95 77     57%   110 29.87        
Jul 19 14:15 S 15 10 Clear CLR 95 78     58%   110 29.88        
Jul 19 13:55 S 15 10 Clear CLR 93 76     57%   106 29.88        
Jul 19 13:35 SSW 16 10 Clear CLR 93 76     57%   106 29.89        
Jul 19 13:15 S 18 10 Clear CLR 93 76     59%   106 29.89        
Jul 19 12:55 S 17 10 Clear CLR 92 76     59%   105 29.9        
Jul 19 12:35 SSW 20 10 Clear and Windy CLR 92 75     59%   103 29.9        
Jul 19 12:15 SSW 20 10 Clear and Windy CLR 91 75     60%   102 29.9        
Jul 19 11:55 SSW 21 10 Clear and Windy CLR 90 75     61%   101 29.9        
Jul 19 11:35 SSW 18 10 Clear CLR 90 75     62%   100 29.9        
Jul 19 11:15 S 20 10 Clear and Windy CLR 89 75     63%   99 29.9        
Jul 19 10:55 S 17 10 Clear CLR 88 75     64%   98 29.9        
Jul 19 10:35 SSW 20 10 Clear and Windy CLR 87 74     66%   96 29.9        
Jul 19 10:15 S 20 10 Clear and Windy CLR 86 74     69%   94 29.9        
Jul 19 09:55 S 15 10 Clear CLR 85 74     71%   92 29.9        
Jul 19 09:35 S 17 10 Clear CLR 83 74     73%   90 29.9        
Jul 19 09:15 S 16 10 Clear CLR 82 74     75%   88 29.9        
Jul 19 08:55 S 16 10 Clear CLR 81 73     76%   86 29.9        
Jul 19 08:35 S 17 10 Clear CLR 81 73     77%   85 29.9        
Jul 19 08:15 S 17 10 Clear CLR 80 73     79%   84 29.9        
Jul 19 07:55 S 18 10 Clear CLR 79 72     80%   82 29.9        
Jul 19 07:35 S 14 10 Clear CLR 78 72     82%   79 29.9        
Jul 19 07:15 S 11 10 Clear CLR 77 72     84%   78 29.89        
Jul 19 06:55 S 9 10 Clear CLR 76 72     86%   77 29.89        
Jul 19 06:35 S 10 10 Clear CLR 76 71     87%   77 29.88        
Jul 19 06:15 S 11 10 Clear CLR 76 72     88%   77 29.88        
Jul 19 05:55 S 10 10 Clear CLR 75 72     88%   77 29.88        
Jul 19 05:35 S 9 10 Clear CLR 76 72     87%   77 29.88        
Jul 19 05:15 S 9 10 Clear CLR 76 72     88%   77 29.88        
Jul 19 04:55 S 10 10 Clear CLR 76 72     88%   77 29.87        
Jul 19 04:35 S 10 10 Clear CLR 76 72     85%   78 29.87        
Jul 19 04:15 S 10 10 Clear CLR 77 72     85%   78 29.87        
Jul 19 03:55 S 11 10 Clear CLR 77 72     84%   79 29.88        
Jul 19 03:35 S 12 10 Clear CLR 78 72     82%   79 29.88        
Jul 19 03:15 S 13 10 Clear CLR 78 72     82%   80 29.88        
Jul 19 02:55 S 14 10 Clear CLR 79 72     81%   82 29.88        
Jul 19 02:35 Calm 10 Clear CLR 80 72     79%   83 29.88        
Jul 19 02:15 S 15 10 Clear CLR 80 73     79%   84 29.89        
Jul 19 01:55 S 15 10 Clear CLR 80 73     77%   85 29.89        
Jul 19 01:35 S 17 10 Clear CLR 81 73     77%   85 29.89        
Jul 19 01:15 S 15 10 Clear CLR 81 73     76%   85 29.89        
Jul 19 00:55 S 17 10 Clear CLR 81 73     76%   86 29.89        
Jul 19 00:35 S 16 10 Clear CLR 81 73     76%   86 29.89        
Jul 19 00:15 S 14 10 Clear CLR 81 73     75%   86 29.89        
Jul 18 23:55 S 16 10 Clear CLR 82 72     73%   87 29.89        
Jul 18 23:35 S 14 10 Clear CLR 82 72     73%   87 29.88        
Jul 18 23:15 S 15 10 Clear CLR 82 72     71%   87 29.88        
Jul 18 22:55 S 14 10 Clear CLR 83 72     69%   88 29.88        
Jul 18 22:35 S 14 10 Clear CLR 83 72     69%   89 29.87        
Jul 18 22:15 S 16 10 Clear CLR 83 72     70%   89 29.86        
Jul 18 21:55 S 13 10 Clear CLR 83 72     70%   89 29.86        
Jul 18 21:35 S 10 10 Clear CLR 84 72     68%   90 29.85        
Jul 18 21:15 S 13 10 Clear CLR 85 72     67%   91 29.84        
Jul 18 20:55 S 13 10 Clear CLR 85 73     67%   92 29.84        
Jul 18 20:35 S 14 10 Clear CLR 87 73     64%   94 29.83        
Jul 18 20:20 S 14 10 Clear CLR 87 73     63%   95 29.83        
Jul 18 19:55 S 14 10 Clear CLR 89 74     63%   98 29.82        
Jul 18 19:15 S 18 10 Clear CLR 91 75     60%   101 29.81        
Jul 18 18:55 S 20 10 Clear and Windy CLR 92 74     56%   102 29.81        
Jul 18 18:35 S 20 10 Clear and Windy CLR 92 74     55%   102 29.8        
Jul 18 18:15 S 21 10 Clear and Windy CLR 93 74     55%   104 29.8        
Jul 18 17:55 S 18 10 Clear CLR 94 75     55%   105 29.81        
Jul 18 17:35 S 22 10 Clear and Windy CLR 94 74     54%   105 29.82        
Jul 18 17:15 S 20 10 Clear and Windy CLR 94 75     54%   106 29.82        
Jul 18 16:55 S 20 10 Partly Cloudy and Windy SCT049 95 75     53%   107 29.82        
Jul 18 16:35 S 22 10 Clear and Windy CLR 95 75     53%   107 29.83        
Jul 18 16:15 S 21 10 Clear and Windy CLR 95 76     54%   108 29.83        
Jul 18 15:55 SSW 21 7 Clear and Windy CLR 95 76     54%   108 29.83        
Jul 18 15:35 S 21 10 Clear and Windy CLR 95 76     55%   108 29.84        
Jul 18 15:15 SSW 24 10 Partly Cloudy and Windy SCT046 95 75     53%   107 29.84        
Jul 18 14:55 SSW 18 10 Partly Cloudy SCT045 94 76     55%   107 29.85        
Jul 18 14:35 S 17 10 Partly Cloudy SCT045 94 76     57%   108 29.85        
Jul 18 14:15 S 16 10 Clear CLR 94 76     56%   107 29.85        
Jul 18 13:50 S 21 10 Clear and Windy CLR 93 76     57%   106 29.86        
Jul 18 13:35 S 18 10 Clear CLR 93 76     58%   106 29.86        
Jul 18 13:30 S 17 10 Clear CLR 93 76     58%   105 29.87        
Jul 18 13:15 SSW 17 7 Clear CLR 93 76     57%   106 29.87        
Jul 18 12:55 SSW 16 10 Clear CLR 93 76     58%   105 29.88        
Jul 18 12:35 S 20 10 Clear and Windy CLR 92 75     59%   103 29.88        
Jul 18 12:15 S 20 10 Clear and Windy CLR 91 75     60%   102 29.88        
Jul 18 11:55 SSW 18 10 Clear CLR 90 75     61%   101 29.89        
Jul 18 11:35 SSW 18 10 Clear CLR 90 75     61%   100 29.89        
Jul 18 11:15 SSW 23 10 Clear and Windy CLR 90 75     62%   100 29.89        
Jul 18 10:55 SSW 21 10 Clear and Windy CLR 89 75     63%   99 29.89        
Jul 18 10:35 SSW 22 10 Clear and Windy CLR 88 74     64%   97 29.89        
Jul 18 10:15 SSW 18 10 Clear CLR 87 75     68%   97 29.9        
Jul 18 09:55 SW 18 10 Clear CLR 86 75     70%   94 29.91        
Jul 18 09:35 SSW 18 10 Clear CLR 85 75     72%   93 29.91        
Jul 18 09:15 SSW 18 10 Clear CLR 84 75     74%   91 29.92        
Jul 18 08:55 SSW 18 10 Clear CLR 83 74     76%   89 29.92        
Jul 18 08:35 SSW 18 10 Clear CLR 82 74     78%   88 29.92        
Jul 18 08:15 SSW 15 10 Clear CLR 81 74     79%   86 29.93        
Jul 18 07:55 S 15 10 Clear CLR 80 74     82%   83 29.92        
Jul 18 07:35 S 14 10 Clear CLR 79 73     84%   82 29.92        
Jul 18 07:15 S 13 10 Clear CLR 78 73     85%   79 29.92        
Jul 18 06:55 S 10 10 Clear CLR 77 73     86%   79 29.93        
Jul 18 06:35 S 10 10 Clear CLR 77 72     87%   78 29.93        
Jul 18 06:15 S 10 10 Clear CLR 76 72     87%   78 29.92        
Jul 18 05:55 S 11 10 Clear CLR 76 72     88%   78 29.92        
Jul 18 05:35 S 9 10 Clear CLR 76 72     87%   78 29.92        
Jul 18 05:15 S 10 10 Clear CLR 77 72     86%   78 29.92        
Jul 18 04:55 S 13 10 Clear CLR 77 72     84%   79 29.92        
Jul 18 04:35 S 11 10 Clear CLR 78 72     82%   79 29.92        
Jul 18 04:15 S 10 10 Clear CLR 78 72     82%   79 29.91        
Jul 18 03:55 S 15 10 Clear CLR 78 72     82%   80 29.91        
Jul 18 03:35 S 12 10 Clear CLR 79 72     81%   82 29.91        
Jul 18 03:15 S 13 10 Clear CLR 79 72     80%   83 29.91        
Jul 18 02:55 S 12 10 Clear CLR 79 73     83%   82 29.91        
Jul 18 02:35 S 10 10 Clear CLR 79 73     83%   82 29.92        
Jul 18 02:15 S 11 10 Clear CLR 79 73     83%   82 29.93        
Jul 18 01:55 S 11 10 Clear CLR 79 73     81%   83 29.93        
Jul 18 01:35 S 12 10 Clear CLR 80 73     80%   84 29.93        
Jul 18 01:15 S 13 10 Clear CLR 81 73     77%   85 29.93        
Jul 18 00:55 S 12 10 Clear CLR 81 73     76%   85 29.93        
Jul 18 00:35 S 12 10 Clear CLR 81 72     76%   85 29.93        
Jul 18 00:15 S 14 10 Clear CLR 81 72     74%   86 29.92        
Jul 17 23:55 S 16 10 Clear CLR 82 72     71%   87 29.92        
Jul 17 23:35 S 16 10 Clear CLR 83 72     70%   88 29.91        
Jul 17 23:15 S 15 10 Clear CLR 83 72     71%   88 29.9        
Jul 17 22:55 S 15 10 Clear CLR 83 73     70%   89 29.9        
Jul 17 22:35 S 15 10 Clear CLR 83 73     72%   89 29.9        
Jul 17 22:15 S 15 10 Clear CLR 84 73     70%   91 29.9        
Jul 17 21:55 S 12 10 Clear CLR 84 74     71%   91 29.89        
Jul 17 21:35 S 12 10 Clear CLR 85 74     71%   92 29.89        
Jul 17 21:15 S 13 10 Clear CLR 85 74     71%   93 29.87        
Jul 17 20:55 S 14 10 Clear CLR 86 75     71%   94 29.87        
Jul 17 20:35 S 12 10 Clear CLR 86 76     71%   96 29.87        
Jul 17 20:15 SSE 11 10 Clear CLR 88 75     65%   98 29.86        
Jul 17 19:55 S 13 10 Clear CLR 90 75     62%   100 29.86        
Jul 17 19:35 S 16 10 Clear CLR 91 75     60%   101 29.86        
Jul 17 19:15 S 13 10 Clear CLR 92 75     59%   103 29.86        
Jul 17 18:55 S 15 10 Clear CLR 92 75     57%   104 29.87        
Jul 17 18:35 S 16 10 Clear CLR 93 75     56%   105 29.87        
Jul 17 18:15 S 16 10 Clear CLR 93 75     56%   105 29.87        
Jul 17 17:55 S 17 10 Clear CLR 94 73     52%   104 29.88        
Jul 17 17:35 S 14 10 Clear CLR 94 74     53%   105 29.88        
Jul 17 17:15 SSW 18 10 Clear CLR 95 74     51%   105 29.89        
Jul 17 16:55 SSW 18 10 Clear CLR 94 74     53%   105 29.89        
Jul 17 16:35 S 16 10 Clear CLR 95 74     51%   106 29.9        
Jul 17 16:15 S 22 10 Clear and Windy CLR 95 76     54%   108 29.9        
Jul 17 15:55 S 18 10 Clear CLR 96 76     54%   109 29.9        
Jul 17 15:35 S 20 10 Clear and Windy CLR 95 76     55%   109 29.91        
Jul 17 15:15 S 18 10 Clear CLR 95 76     55%   108 29.92        
Jul 17 14:55 S 16 10 Clear CLR 94 75     54%   106 29.92        
Jul 17 14:35 S 17 10 Clear CLR 94 77     57%   108 29.93        
Jul 17 14:15 S 23 10 Clear and Windy CLR 94 76     56%   107 29.93        
Jul 17 13:55 S 17 10 Clear CLR 93 77     60%   108 29.93        
Jul 17 13:35 S 17 10 Clear CLR 94 76     55%   107 29.94        
Jul 17 13:15 S 18 10 Clear CLR 93 76     58%   106 29.94        
Jul 17 12:55 S 20 10 Clear and Windy CLR 92 76     59%   105 29.95        
Jul 17 12:35 S 18 10 Clear CLR 92 77     62%   107 29.95        
Jul 17 12:15 S 15 10 Clear CLR 92 77     61%   105 29.95        
Jul 17 11:55 S 20 10 Clear and Windy CLR 91 76     61%   103 29.95        
Jul 17 11:35 S 15 10 Clear CLR 91 75     61%   102 29.95        
Jul 17 11:15 S 16 10 Clear CLR 90 75     62%   101 29.95        
Jul 17 10:55 S 17 10 Clear CLR 89 75     62%   99 29.96        
Jul 17 10:35 SSW 16 10 Clear CLR 89 75     65%   99 29.95        
Jul 17 10:15 SSW 14 10 Clear CLR 88 76     67%   99 29.95        
Jul 17 09:55 SSW 16 10 Clear CLR 87 75     68%   97 29.95        
Jul 17 09:35 SSW 18 10 Clear CLR 86 74     69%   94 29.95        
Jul 17 09:15 S 18 10 Clear CLR 85 75     72%   94 29.94        
Jul 17 08:55 S 16 10 Clear CLR 84 75     74%   92 29.94        
Jul 17 08:35 S 14 10 Clear CLR 83 75     77%   91 29.94        
Jul 17 08:15 S 14 10 Clear CLR 82 75     79%   89 29.94        
Jul 17 07:55 S 10 10 Clear CLR 81 76     83%   88 29.94        
Jul 17 07:35 S 12 10 Clear CLR 80 76     85%   86 29.93        
Jul 17 07:15 S 12 10 Clear CLR 80 75     87%   84 29.92        
Jul 17 06:55 S 9 10 Clear CLR 79 75     90%   82 29.92        
Jul 17 06:35 S 9 10 Clear CLR 78 75     90%   82 29.92        
Jul 17 06:15 S 10 10 Clear CLR 78 75     90%   82 29.92        
Jul 17 05:55 S 9 10 Clear CLR 79 76     90%   82 29.91        
Jul 17 05:35 S 10 10 Clear CLR 79 76     90%   82 29.91        
Jul 17 05:15 S 9 10 Clear CLR 79 76     91%   82 29.91        
Jul 17 04:55 S 8 10 Clear CLR 78 76     92%   82 29.91        
Jul 17 04:35 S 8 10 Clear CLR 78 76     93%   80 29.9        
Jul 17 04:15 S 8 10 Clear CLR 78 76     93%   80 29.9        
Jul 17 03:55 S 7 10 Clear CLR 78 76     93%   80 29.9        
Jul 17 03:35 S 7 10 Clear CLR 78 75     91%   80 29.9        
Jul 17 03:15 SSE 8 10 Clear CLR 78 75     90%   82 29.9        
Jul 17 02:55 S 9 10 Clear CLR 78 75     90%   82 29.9        
Jul 17 02:35 SSE 8 10 Clear CLR 79 75     89%   82 29.91        
Jul 17 02:15 SSE 7 10 Clear CLR 79 75     87%   83 29.91        
Jul 17 01:55 SSE 7 10 Clear   79 75     86%   83 29.92        
Jul 17 01:35 SSE 6 10 Clear   79 74     85%   83 29.92        
Jul 17 01:15 SSE 9 10 Clear   80 74     83%   85 29.93        
Jul 17 00:55 SSE 8 10 Clear   80 74     83%   85 29.93        
Jul 17 00:35 SE 8 10 Clear CLR 80 74     82%   85 29.93        
Jul 17 00:15 SE 7 10 Clear CLR 80 74     83%   84 29.93        
Jul 16 23:55 SE 7 10 Clear CLR 80 74     84%   84 29.93        
Jul 16 23:35 SE 7 10 Clear CLR 80 74     83%   85 29.93        
Jul 16 23:15 SE 7 10 Clear CLR 80 74     84%   84 29.92        
Jul 16 22:55 ESE 7 10 Clear CLR 80 74     84%   84 29.92        
Jul 16 22:35 ESE 6 10 Clear CLR 80 74     82%   85 29.92        
Jul 16 22:15 SE 7 10 Clear CLR 81 74     81%   86 29.92        
Jul 16 21:55 ESE 7 10 Clear CLR 81 74     80%   87 29.91        
Jul 16 21:35 ESE 8 10 Clear CLR 82 74     78%   88 29.91        
Jul 16 21:15 ESE 7 10 Clear CLR 82 74     78%   88 29.9        
Jul 16 20:55 ESE 7 10 Clear CLR 83 75     78%   90 29.89        
Jul 16 20:35 ESE 6 10 Clear CLR 84 75     76%   92 29.89        
Jul 16 20:15 SE 6 10 Clear CLR 85 75     74%   93 29.89        
Jul 16 17:55 SW 8 10 Clear CLR 90 74     60%   100 29.91        
Jul 16 17:35 SW 12 5 Haze CLR 90 74     58%   100 29.92        
Jul 16 17:15 WSW 10 10 Clear CLR 91 73     57%   100 29.93        
Jul 16 17:00 SSW 12 10 Clear CLR 90 73     56%   99 29.92        
Jul 16 16:35 SSW 10 10 Clear CLR 90 72     55%   97 29.92        
Jul 16 16:15 S 7 10 Clear CLR 89 72     56%   96 29.93        
Jul 16 15:55 SSE 9 10 Clear CLR 89 71     56%   95 29.92        
Jul 16 15:35 SE 9 10 Clear CLR 89 71     56%   95 29.92        
Jul 16 15:15 S 8 10 Clear CLR 89 71     57%   95 29.92        
Jul 16 14:55 ESE 7 10 Clear CLR 88 70     55%   93 29.92        
Jul 16 14:35 SSE 6 10 Clear CLR 87 70     57%   92 29.93        
Jul 16 14:15 S 7 10 Clear CLR 87 71     60%   93 29.94        
Jul 16 13:55 S 5 10 Clear CLR 86 71     60%   92 29.94        
Jul 16 13:35 SE 6 10 Clear CLR 86 72     62%   92 29.95        
Jul 16 13:15 SE 5 10 Clear CLR 84 72     66%   90 29.95        
Jul 16 12:55 SSE 5 10 Clear CLR 84 71     64%   89 29.96        
Jul 16 12:35 E 3 10 Clear CLR 85 70     62%   89 29.97        
Jul 16 12:15 ENE 7 10 Clear CLR 85 72     66%   91 29.97        
Jul 16 11:55 NE 7 10 Clear CLR 84 71     66%   89 29.97        
Jul 16 11:35 ENE 6 10 Clear CLR 84 71     67%   89 29.98        
Jul 16 11:15 NE 3 10 Clear CLR 83 72     70%   88 29.98        
Jul 16 10:55 Calm 10 Clear CLR 82 71     70%   86 29.98        
Jul 16 10:35 Calm 10 Clear CLR 81 71     72%   84 29.97        
Jul 16 10:15 Calm 10 Clear CLR 80 72     75%   84 29.97        
Jul 16 09:55 E 3 10 Clear CLR 79 72     78%   82 29.97        
Jul 16 09:35 Calm 10 Clear CLR 78 71     81%   79 29.98        
Jul 16 09:15 Calm 10 Clear CLR 77 72     85%   78 29.98        
Jul 16 08:55 Calm 10 Clear CLR 75 71     87%   76 29.97        
Jul 16 08:35 NE 3 10 Clear CLR 74 71     91%   75 29.96        
Jul 16 08:15 NE 5 10 Clear CLR 74 71     91%   76 29.95        
Jul 16 07:55 Calm 10 Clear CLR 73 70     90%   75 29.94        
Jul 16 07:35 Calm 10 Clear CLR 72 70     93%   73 29.94        
Jul 16 07:15 Calm 10 Clear CLR 70 69     97%   72 29.93        
Jul 16 06:55 Calm 10 Clear CLR 69 68     98%     29.94        
Jul 16 06:35 Calm 10 Clear CLR 68 67     97%     29.93        
Jul 16 06:15 Calm 10 Clear CLR 69 68     98%     29.91        
Jul 16 05:55 Calm 10 Clear CLR 69 68     98%     29.91        
Jul 16 05:35 Calm 10 Clear CLR 68 68     98%     29.91        
Jul 16 05:15 W 3 10 Clear CLR 68 67     98%     29.9        
Jul 16 04:55 Calm 10 Clear CLR 68 67     97%     29.9        
Jul 16 04:35 Calm 10 Clear CLR 69 68     97%     29.9        
Jul 16 04:15 Calm 10 Clear CLR 70 69     98%     29.9        
Jul 16 03:55 Calm 10 Clear CLR 69 69     98%     29.9        
Jul 16 03:35 Calm 10 Clear CLR 70 69     97%     29.91        
Jul 16 03:15 Calm 10 Clear CLR 70 69     97%     29.91        
Jul 16 02:55 Calm 10 Clear CLR 70 69     95%   72 29.91        
Jul 16 02:35 Calm 10 Clear CLR 71 69     93%   73 29.92        
Jul 16 02:15 Calm 10 Clear CLR 72 70     94%   73 29.92        
Jul 16 01:55 Calm 10 Clear CLR 72 69     91%   73 29.92        
Jul 16 01:35 Calm 10 Clear CLR 72 70     92%   73 29.92        
Jul 16 01:15 Calm 10 Clear CLR 72 70     92%   73 29.92        
Jul 16 00:55 Calm 10 Clear   72 70     93%   73 29.92        
Jul 16 00:35 N 3 10 Clear   73 70     90%   74 29.93        
Jul 16 00:15 Calm 10 Clear   73 70     91%   74 29.93        
Jul 15 23:55 Calm 10 Clear   75 71     87%   76 29.92        
Jul 15 23:35 NE 3 10 Mostly Cloudy BKN048 76 70     83%   77 29.92        
Jul 15 23:15 NE 3 10 Cloudy OVC048 75 71     88%   77 29.92        
Jul 15 22:55 N 3 10 Mostly Cloudy BKN048 74 71     90%   76 29.91        
Jul 15 22:35 Calm 10 Clear CLR 75 70     84%   77 29.91        
Jul 15 22:15 E 3 10 Partly Cloudy SCT050 76 70     80%   77 29.9        
Jul 15 21:55 Calm 10 Cloudy OVC050 77 71     83%   78 29.9        
Jul 15 21:35 Calm 10 Cloudy OVC050 77 70     79%   78 29.89        
Jul 15 21:15 ENE 3 10 Mostly Cloudy BKN050 77 70     77%   78 29.88        
Jul 15 20:55 ENE 5 10 Partly Cloudy SCT060 78 70     77%   79 29.87        
Jul 15 20:35 ENE 7 10 Partly Cloudy SCT060 79 70     75%   80 29.87        
Jul 15 20:15 ENE 6 10 Mostly Cloudy BKN060 80 70     73%   83 29.87        
Jul 15 19:55 ENE 6 10 Cloudy OVC060 81 70     70%   84 29.87        
Jul 15 19:35 ENE 6 10 Cloudy SCT037 OVC060 81 70     69%   85 29.88        
Jul 15 19:15 E 3 10 Cloudy SCT035 OVC050 81 70     69%   85 29.88        
Jul 15 18:55 E 3 10 Cloudy BKN037 OVC050 81 70     69%   85 29.88        
Jul 15 18:35 ENE 7 10 Cloudy SCT037 OVC050 82 69     66%   86 29.88        
Jul 15 18:15 N 5 10 Cloudy OVC050 83 69     63%   87 29.88        
Jul 15 17:55 ENE 5 10 Cloudy OVC050 83 71     67%   87 29.88        
Jul 15 17:35 E 8 10 Cloudy OVC050 83 70     64%   87 29.88        
Jul 15 17:15 ENE 9 10 Cloudy OVC050 82 69     65%   86 29.88        
Jul 15 16:55 NE 10 10 Mostly Cloudy BKN048 83 69     64%   86 29.89        
Jul 15 16:35 NE 6 10 Partly Cloudy SCT040 SCT048 84 68     59%   88 29.89        
Jul 15 16:15 NE 9 10 Mostly Cloudy SCT039 BKN048 84 68     60%   87 29.89        
Jul 15 15:55 ENE 10 10 Mostly Cloudy SCT042 BKN048 83 70     64%   87 29.9        
Jul 15 15:35 NE 12 10 Cloudy OVC043 82 68     63%   85 29.9        
Jul 15 15:15 NE 7 10 Cloudy SCT034 OVC045 83 69     64%   86 29.91        
Jul 15 14:55 NE 13 10 Cloudy SCT032 OVC045 83 70     66%   87 29.91        
Jul 15 14:35 NE 12 10 Cloudy SCT032 SCT039 OVC045 82 69     67%   85 29.91        
Jul 15 14:15 NE 11 10 Cloudy SCT037 OVC045 82 70     67%   86 29.92        
Jul 15 13:55 ENE 9 10 Cloudy OVC045 82 69     65%   85 29.92        
Jul 15 13:35 ENE 13 10 Cloudy SCT029 OVC043 81 70     68%   85 29.93        
Jul 15 13:15 ENE 13 10 Cloudy SCT029 BKN035 OVC043 81 69     66%   85 29.93        
Jul 15 12:55 NNE 9 10 Mostly Cloudy SCT029 BKN035 BKN045 81 69     66%   84 29.94        
Jul 15 12:35 NE 9 10 Mostly Cloudy SCT027 BKN043 81 68     65%   84 29.94        
Jul 15 12:15 NNE 9 10 Mostly Cloudy BKN027 SCT033 81 70     69%   84 29.95        
Jul 15 11:55 ENE 7 10 Mostly Cloudy BKN027 BKN033 BKN041 80 69     69%   83 29.95        
Jul 15 11:35 N 7 10 Cloudy BKN025 OVC030 78 68     72%   78 29.95        
Jul 15 11:15 NE 10 10 Cloudy BKN023 OVC032 77 68     73%   78 29.96        
Jul 15 10:55 NNE 7 10 Cloudy OVC023 77 68     74%   78 29.96        
Jul 15 10:35 NE 8 10 Mostly Cloudy BKN021 BKN040 78 69     74%   79 29.97        
Jul 15 10:15 NE 9 10 Mostly Cloudy BKN021 BKN038 76 68     76%   77 29.97        
Jul 15 09:55 NE 9 10 Cloudy OVC021 75 67     76%   76 29.98        
Jul 15 09:35 NE 12 10 Cloudy BKN021 OVC035 74 67     77%   75 29.98        
Jul 15 09:15 NNE 11 10 Cloudy SCT019 OVC035 74 67     79%   75 29.98        
Jul 15 08:55 NE 12 10 Cloudy OVC035 74 67     78%   75 29.98        
Jul 15 08:35 NE 10 10 Cloudy SCT024 OVC035 75 68     79%   76 29.98        
Jul 15 08:15 NNE 9 10 Partly Cloudy SCT024 SCT035 71 67     87%   72 29.98        
Jul 15 07:55 N 10 10 Clear CLR 72 67     87%   73 29.98        
Jul 15 07:35 N 8 10 Clear CLR 70 67     90%   71 29.98        
Jul 15 07:15 N 8 10 Clear CLR 69 67     93%     29.97        
Jul 15 06:55 N 7 10 Clear CLR 67 66     95%     29.98        
Jul 15 06:35 N 6 10 Clear CLR 67 65     96%     29.98        
Jul 15 06:15 N 6 10 Clear CLR 66 65     96%     29.97        
Jul 15 05:55 NNE 6 10 Partly Cloudy SCT023 68 66     93%     29.97        
Jul 15 05:35 NE 8 10 Partly Cloudy SCT023 67 66     95%     29.96        
Jul 15 05:15 NNE 6 10 Partly Cloudy SCT023 67 65     95%     29.97        
Jul 15 04:55 N 3 10 Partly Cloudy SCT023 67 65     93%     29.97        
Jul 15 04:35 NNE 6 10 Clear CLR 68 66     93%     29.96        
Jul 15 04:15 ENE 7 10 Clear CLR 68 66     92%     29.96        
Jul 15 03:55 NE 7 10 Clear CLR 69 66     91%     29.97        
Jul 15 03:35 ENE 7 10 Clear CLR 69 66     91%     29.97        
Jul 15 03:15 E 7 10 Clear CLR 69 66     91%     29.98        
Jul 15 02:55 E 6 10 Clear CLR 69 66     91%     29.98        
Jul 15 02:35 E 6 10 Clear CLR 70 66     89%     29.99        
Jul 15 02:15 E 7 10 Clear CLR 70 66     88%   71 29.99        
Jul 15 01:55 E 8 10 Clear CLR 71 67     87%   72 29.99        
Jul 15 01:35 E 8 10 Clear CLR 71 67     85%   72 30        
Jul 15 01:15 E 10 10 Clear CLR 72 67     85%   73 30        
Jul 15 00:55 E 8 10 Clear CLR 72 67     84%   73 30        
Jul 15 00:35 E 3 10 Clear CLR 72 67     84%   73 30        
Jul 15 00:15 E 3 10 Clear CLR 73 67     82%   74 30.01        
Jul 14 23:55 ESE 7 10 Clear CLR 74 67     80%   75 30        
Jul 14 23:35 ESE 7 10 Clear CLR 74 67     78%   75 30        
Jul 14 23:15 ESE 9 10 Clear CLR 76 67     76%   77 30        
Jul 14 22:55 ESE 10 10 Clear CLR 76 69     77%   77 29.99        
Jul 14 22:35 ESE 9 10 Partly Cloudy SCT042 77 69     76%   78 29.99        
Jul 14 22:15 ESE 9 10 Mostly Cloudy BKN043 77 69     76%   78 29.99        
Jul 14 21:55 ESE 8 10 Mostly Cloudy BKN041 78 69     74%   79 29.99        
Jul 14 21:35 ESE 8 10 Partly Cloudy SCT039 SCT047 79 70     74%   82 29.98        
Jul 14 21:10 ESE 7 10 Partly Cloudy SCT039 80 70     73%   83 29.97        
Jul 14 20:55 ESE 8 10 Clear CLR 80 70     71%   84 29.97        
Jul 14 20:35 E 8 10 Clear CLR 81 71     72%   85 29.97        
Jul 14 20:15 E 8 10 Clear CLR 82 71     69%   87 29.96        
Jul 14 19:55 E 9 10 Partly Cloudy SCT042 83 71     66%   88 29.97        
Jul 14 19:35 E 9 10 Partly Cloudy SCT042 85 71     63%   90 29.97        
Jul 14 19:15 E 13 10 Partly Cloudy SCT042 86 71     61%   91 29.97        
Jul 14 18:55 ESE 9 10 Clear CLR 86 70     60%   91 29.97        
Jul 14 18:35 ESE 10 10 Clear CLR 87 71     59%   92 29.97        
Jul 14 18:15 E 11 10 Clear CLR 87 70     58%   92 29.97        
Jul 14 17:55 E 12 10 Clear CLR 87 70     57%   92 29.98        
Jul 14 17:35 E 10 10 Clear CLR 87 71     58%   93 29.99        
Jul 14 17:15 E 9 10 Partly Cloudy SCT055 85 72     63%   91 30        
Jul 14 16:55 E 9 10 Partly Cloudy SCT055 87 72     59%   94 30        
Jul 14 16:35 ESE 8 10 Mostly Cloudy SCT041 BKN055 86 71     61%   91 30.01        
Jul 14 16:15 ESE 8 10 Mostly Cloudy SCT041 BKN055 87 72     61%   94 30.02        
Jul 14 15:55 E 8 10 Mostly Cloudy BKN055 87 71     59%   93 30.02        
Jul 14 15:35 E 14 10 Mostly Cloudy BKN055 87 72     60%   94 30.02        
Jul 14 15:15 SE 8 10 Mostly Cloudy BKN049 87 73     63%   95 30.03        
Jul 14 14:55 SE 12 10 Cloudy SCT038 OVC049 87 74     64%   95 30.03        
Jul 14 14:35 ESE 12 10 Cloudy SCT038 OVC049 86 73     64%   93 30.03        
Jul 14 14:10 ESE 11 10 Mostly Cloudy SCT038 BKN049 87 74     66%   95 30.03        
Jul 14 13:55 SE 10 10 Cloudy BKN039 OVC049 86 72     64%   92 30.03        
Jul 14 13:35 ESE 12 10 Cloudy BKN039 OVC049 85 72     66%   91 30.04        
Jul 14 13:15 E 10 10 Cloudy SCT034 BKN040 OVC049 86 72     64%   92 30.04        
Jul 14 12:55 E 6 10 Cloudy BKN031 BKN040 OVC055 86 74     67%   94 30.04        
Jul 14 12:35 ESE 8 10 Cloudy BKN031 OVC038 84 74     71%   91 30.05        
Jul 14 12:15 E 7 10 Mostly Cloudy SCT027 BKN033 BKN039 85 75     72%   93 30.04        
Jul 14 11:55 E 10 10 Mostly Cloudy SCT027 BKN035 BKN041 85 74     71%   93 30.04        
Jul 14 11:35 ESE 5 10 Cloudy SCT025 BKN035 OVC041 84 74     74%   91 30.05        
Jul 14 11:15 ESE 6 10 Cloudy SCT023 BKN030 OVC035 83 74     75%   89 30.05        
Jul 14 10:55 ESE 8 10 Cloudy BKN023 OVC028 83 74     77%   89 30.05        
Jul 14 10:35 SSE 6 10 Cloudy BKN021 OVC028 83 75     78%   90 30.05        
Jul 14 10:15 SE 8 10 Mostly Cloudy BKN018 81 74     79%   87 30.05        
Jul 14 09:55 SE 9 10 Clear CLR 82 76     80%   89 30.05        
Jul 14 09:35 ESE 9 10 Clear CLR 81 75     82%   87 30.05        
Jul 14 09:15 SSE 9 10 Clear CLR 80 74     83%   84 30.06        
Jul 14 08:55 ESE 8 10 Partly Cloudy SCT019 79 74     85%   83 30.06        
Jul 14 08:35 ESE 8 10 Partly Cloudy SCT019 SCT070 79 74     86%   82 30.06        
Jul 14 08:15 E 7 10 Partly Cloudy SCT070 78 74     87%   79 30.06        
Jul 14 07:55 ENE 7 10 Clear CLR 77 73     88%   78 30.06        
Jul 14 07:35 NE 7 10 Clear CLR 75 72     90%   77 30.05        
Jul 14 07:15 NNE 6 10 Clear CLR 74 72     92%   76 30.04        
Jul 14 06:55 N 6 10 Clear CLR 73 71     95%   74 30.03        
Jul 14 06:35 NE 3 10 Clear CLR 72 70     95%   73 30.03        
Jul 14 06:15 N 3 10 Clear CLR 73 70     92%   74 30.02        
Jul 14 05:55 NE 7 10 Clear CLR 74 71     91%   75 30.02        
Jul 14 05:35 NE 6 10 Clear CLR 73 71     91%   75 30.02        
Jul 14 05:15 ENE 6 10 Clear CLR 73 71     91%   75 30.02        
Jul 14 04:50 ENE 7 10 Clear CLR 73 71     92%   75 30.02        
Jul 14 04:35 NE 7 10 Clear CLR 73 71     92%   75 30.02        
Jul 14 04:15 NNE 8 10 Clear CLR 72 71     94%   74 30.01        
Jul 14 03:55 NNE 7 10 Clear CLR 73 71     92%   74 30.01        
Jul 14 03:35 NNE 7 10 Clear CLR 73 71     92%   74 30.01        
Jul 14 03:15 NNE 7 10 Clear CLR 73 71     92%   74 30.01        
Jul 14 02:55 NE 6 10 Clear CLR 74 71     91%   75 30.01        
Jul 14 02:35 NNE 7 10 Clear CLR 73 71     92%   75 30.01        
Jul 14 02:15 NE 6 10 Clear CLR 74 71     89%   76 30.02        
Jul 14 01:55 NE 6 10 Clear CLR 75 71     87%   77 30.02        
Jul 14 01:35 ENE 6 10 Clear CLR 76 71     84%   78 30.02        
Jul 14 01:15 ENE 7 10 Clear CLR 76 71     84%   78 30.03        
Jul 14 00:55 NE 8 10 Clear CLR 76 72     86%   78 30.03        
Jul 14 00:35 NNE 7 10 Clear CLR 75 72     90%   77 30.03        
Jul 14 00:15 NE 6 10 Clear CLR 76 72     89%   77 30.03        
Jul 13 23:55 N 7 10 Clear CLR 75 72     89%   77 30.03        
Jul 13 23:35 NNE 5 10 Clear CLR 76 72     88%   78 30.02        
Jul 13 23:15 NE 5 10 Clear CLR 78 72     84%   79 30.02        
Jul 13 22:55 NE 6 10 Clear CLR 79 72     79%   82 30.01        
Jul 13 22:35 ENE 6 10 Clear CLR 80 72     77%   83 30        
Jul 13 22:15 ENE 6 10 Clear CLR 80 72     75%   84 29.99        
Jul 13 21:55 ENE 5 10 Clear CLR 80 72     76%   84 29.99        
Jul 13 21:35 E 5 10 Clear CLR 81 72     73%   85 29.98        
Jul 13 21:15 E 5 10 Clear CLR 81 71     73%   85 29.97        
Jul 13 20:55 E 6 10 Clear CLR 82 72     72%   87 29.97        
Jul 13 20:35 E 5 10 Clear CLR 83 72     69%   88 29.97        
Jul 13 20:15 E 6 10 Clear CLR 84 72     67%   90 29.97        
Jul 13 19:55 E 6 10 Clear CLR 85 72     65%   92 29.97        
Jul 13 19:35 E 7 10 Clear CLR 86 72     62%   92 29.97        
Jul 13 19:15 ESE 7 10 Clear CLR 87 71     60%   93 29.96        
Jul 13 18:55 ESE 8 10 Clear CLR 87 71     59%   93 29.96        
Jul 13 18:35 ESE 9 10 Clear CLR 88 71     57%   94 29.96        
Jul 13 18:15 E 7 10 Clear CLR 89 71     55%   94 29.97        
Jul 13 17:55 E 10 10 Clear CLR 89 71     55%   95 29.97        
Jul 13 17:35 E 10 10 Clear CLR 90 70     52%   95 29.97        
Jul 13 17:15 E 8 10 Clear CLR 89 68     50%   93 29.98        
Jul 13 16:55 E 8 10 Clear CLR 89 68     50%   92 29.98        
Jul 13 16:35 E 9 10 Clear CLR 89 67     48%   92 29.98        
Jul 13 16:15 ENE 13 10 Clear CLR 89 67     49%   92 29.99        
Jul 13 15:55 E 12 10 Clear CLR 89 67     49%   92 30        
Jul 13 15:35 E 12 10 Clear CLR 89 68     50%   93 30        
Jul 13 15:15 E 10 10 Clear CLR 89 66     48%   91 30.01        
Jul 13 14:55 ENE 13 10 Clear CLR 88 67     50%   92 30.01        
Jul 13 14:35 ENE 13 10 Clear CLR 88 66     49%   91 30.01        
Jul 13 14:15 ENE 9 10 Clear CLR 88 69     54%   93 30.01        
Jul 13 13:55 E 12 10 Partly Cloudy SCT049 88 68     52%   91 30.02        
Jul 13 13:35 ENE 10 10 Partly Cloudy SCT047 87 67     51%   91 30.02        
Jul 13 13:15 E 13 10 Clear CLR 87 69     56%   91 30.02        
Jul 13 12:55 E 13 10 Partly Cloudy SCT044 87 69     56%   91 30.03        
Jul 13 12:35 E 12 10 Partly Cloudy SCT044 87 70     57%   91 30.03        
Jul 13 12:15 E 7 10 Partly Cloudy SCT042 SCT050 86 70     60%   91 30.03        
Jul 13 11:55 E 13 10 Partly Cloudy SCT039 86 71     61%   92 30.04        
Jul 13 11:35 E 7 10 Partly Cloudy SCT037 SCT050 85 70     61%   90 30.04        
Jul 13 11:15 E 8 10 Partly Cloudy SCT033 SCT060 83 71     67%   88 30.04        
Jul 13 10:55 E 5 10 Partly Cloudy SCT031 84 70     64%   88 30.04        
Jul 13 10:35 E 7 10 Clear CLR 83 72     69%   89 30.05        
Jul 13 10:15 E 5 10 Clear CLR 83 72     70%   87 30.05        
Jul 13 09:55 NE 5 10 Clear CLR 82 73     74%   87 30.05        
Jul 13 09:35 E 3 10 Clear CLR 80 71     74%   84 30.05        
Jul 13 09:15 E 5 10 Clear CLR 80 72     78%   83 30.05        
Jul 13 08:55 E 5 10 Clear CLR 78 72     81%   79 30.04        
Jul 13 08:35 NNE 5 10 Clear CLR 76 71     85%   77 30.03        
Jul 13 08:15 NNE 6 10 Clear CLR 75 71     88%   76 30.03        
Jul 13 07:55 NNE 5 10 Clear CLR 74 70     89%   75 30.02        
Jul 13 07:35 NNE 3 10 Clear CLR 73 70     91%   74 30.01        
Jul 13 07:15 Calm 10 Clear CLR 71 69     92%   72 30.01        
Jul 13 06:55 NNE 3 10 Clear CLR 69 68     96%     30        
Jul 13 06:35 NNE 5 10 Clear CLR 68 67     95%     30        
Jul 13 06:15 Calm 10 Clear CLR 69 68     95%     29.99        
Jul 13 05:55 Calm 10 Clear CLR 69 67     95%     29.99        
Jul 13 05:35 N 5 10 Clear CLR 69 67     95%     29.99        
Jul 13 05:15 NE 3 10 Clear CLR 69 68     95%     29.99        
Jul 13 04:55 N 3 10 Clear CLR 69 68     96%     29.99        
Jul 13 04:35 NE 5 10 Clear CLR 69 67     94%     29.98        
Jul 13 04:15 NE 3 10 Clear CLR 70 68     95%     29.98        
Jul 13 03:55 NNE 5 10 Clear CLR 70 68     93%     29.97        
Jul 13 03:35 N 3 10 Clear CLR 69 68     94%     29.98        
Jul 13 03:15 ENE 3 10 Clear CLR 71 68     91%   72 29.98        
Jul 13 02:55 N 5 10 Clear CLR 70 68     93%     29.98        
Jul 13 02:35 NNE 3 10 Clear CLR 71 69     92%   72 29.98        
Jul 13 02:15 N 3 10 Clear CLR 71 69     91%   72 29.98        
Jul 13 01:55 N 5 10 Clear CLR 71 69     93%   72 29.98        
Jul 13 01:35 NNE 3 10 Clear CLR 71 69     92%   72 29.97        
Jul 13 01:15 ENE 5 10 Clear CLR 72 69     88%   74 29.97        
Jul 13 00:55 NNE 5 10 Clear CLR 72 69     91%   73 29.97        
Jul 13 00:35 NE 6 10 Clear CLR 72 69     91%   73 29.97        
Jul 13 00:15 NNE 6 10 Clear CLR 73 69     88%   74 29.97        
Jul 12 23:55 NNE 6 10 Clear CLR 72 69     90%   73 29.96        
Jul 12 23:35 N 6 10 Clear CLR 72 69     88%   73 29.96        
Jul 12 23:15 NE 3 10 Clear CLR 74 69     86%   75 29.95        
Jul 12 22:55 ENE 5 10 Clear CLR 76 69     78%   77 29.95        
Jul 12 22:35 ENE 5 10 Clear CLR 76 69     78%   77 29.95        
Jul 12 22:15 ENE 5 10 Clear CLR 76 69     79%   77 29.95        
Jul 12 21:55 ENE 5 10 Clear CLR 76 70     81%   77 29.95        
Jul 12 21:35 ENE 3 10 Clear CLR 78 69     73%   79 29.94        
Jul 12 21:15 E 5 10 Clear CLR 80 69     70%   82 29.93        
Jul 12 20:55 E 5 10 Clear CLR 80 69     70%   82 29.93        
Jul 12 20:35 E 5 10 Clear CLR 81 68     66%   83 29.93        
Jul 12 20:15 E 7 10 Clear CLR 82 69     65%   85 29.93        
Jul 12 19:55 E 6 10 Clear CLR 83 68     61%   86 29.94        
Jul 12 19:35 E 7 10 Clear CLR 84 68     58%   87 29.94        
Jul 12 19:15 E 8 10 Clear CLR 85 68     58%   88 29.93        
Jul 12 18:55 E 9 10 Clear CLR 85 68     56%   89 29.93        
Jul 12 18:35 ENE 6 10 Clear CLR 86 67     54%   89 29.94        
Jul 12 18:15 ENE 6 10 Clear CLR 86 68     54%   90 29.94        
Jul 12 17:55 E 7 10 Partly Cloudy SCT049 SCT060 86 68     55%   89 29.95        
Jul 12 17:35 ESE 6 10 Partly Cloudy SCT060 86 69     55%   90 29.95        
Jul 12 17:15 E 8 10 Clear CLR 87 68     54%   90 29.96        
Jul 12 16:55 ENE 5 10 Partly Cloudy SCT055 86 68     56%   90 29.96        
Jul 12 16:35 ENE 6 10 Mostly Cloudy SCT048 BKN055 86 69     56%   90 29.96        
Jul 12 16:15 E 9 10 Mostly Cloudy SCT048 BKN055 86 68     55%   90 29.97        
Jul 12 15:55 SSE 6 10 Partly Cloudy SCT046 SCT055 85 69     58%   89 29.97        
Jul 12 15:35 E 10 10 Mostly Cloudy SCT046 BKN055 86 69     58%   90 29.98        
Jul 12 15:15 SE 8 10 Mostly Cloudy BKN049 84 68     59%   87 29.98        
Jul 12 14:55 E 10 10 Mostly Cloudy BKN049 86 68     55%   89 29.98        
Jul 12 14:35 SE 7 10 Mostly Cloudy BKN047 86 68     56%   89 29.98        
Jul 12 14:15 NE 8 10 Partly Cloudy SCT045 85 68     56%   88 29.98        
Jul 12 13:55 ENE 10 10 Mostly Cloudy BKN045 83 67     58%   86 29.98        
Jul 12 13:35 ESE 7 10 Mostly Cloudy BKN045 85 68     57%   88 29.99        
Jul 12 13:15 E 9 10 Mostly Cloudy BKN046 BKN060 83 66     57%   85 29.99        
Jul 12 12:55 ESE 7 10 Mostly Cloudy BKN042 82 67     60%   85 30        
Jul 12 12:35 E 7 10 Mostly Cloudy BKN042 BKN049 82 66     58%   84 30        
Jul 12 12:15 E 7 10 Partly Cloudy SCT040 SCT049 83 69     63%   86 30        
Jul 12 11:55 ESE 8 7 Mostly Cloudy BKN047 83 68     61%   86 30.01        
Jul 12 11:35 NE 6 10 Mostly Cloudy SCT040 BKN046 81 66     61%   83 30.01        
Jul 12 11:15 E 3 10 Mostly Cloudy SCT033 BKN046 81 67     63%   84 30.01        
Jul 12 10:55 ENE 8 10 Partly Cloudy SCT033 81 69     66%   85 30.02        
Jul 12 10:35 ENE 7 10 Partly Cloudy SCT033 81 69     67%   84 30.01        
Jul 12 10:15 NE 5 10 Clear CLR 80 68     67%   82 30.01        
Jul 12 09:55 NE 6 10 Clear CLR 79 68     70%   80 30.01        
Jul 12 09:35 ENE 5 10 Clear CLR 78 68     73%   79 30.01        
Jul 12 09:15 NE 3 7 Haze CLR 76 68     75%   77 30.01        
Jul 12 08:55 NNE 3 10 Clear CLR 75 68     80%   76 30.01        
Jul 12 08:35 NE 3 10 Clear CLR 73 67     82%   74 30.01        
Jul 12 08:15 NNE 5 10 Clear CLR 72 67     86%   73 30.01        
Jul 12 07:55 NNE 6 10 Clear CLR 71 67     87%   71 30        
Jul 12 07:35 NNE 6 10 Clear CLR 69 66     88%     30        
Jul 12 07:15 NNE 6 10 Clear CLR 68 65     91%     30        
Jul 12 06:55 N 3 10 Clear CLR 66 65     95%     30        
Jul 12 06:35 N 3 10 Clear CLR 65 64     97%     30        
Jul 12 06:15 NNE 5 10 Clear CLR 65 64     97%     29.99        
Jul 12 05:55 Calm 10 Clear CLR 66 65     96%     29.99        
Jul 12 05:35 Calm 10 Clear CLR 67 65     95%     29.99        
Jul 12 05:15 Calm 10 Clear CLR 67 65     95%     29.99        
Jul 12 04:55 N 5 10 Clear CLR 65 64     96%     29.99        
Jul 12 04:35 Calm 10 Clear CLR 67 65     95%     29.99        
Jul 12 04:15 Calm 10 Clear CLR 67 65     94%     29.99        
Jul 12 03:55 NW 3 10 Clear CLR 67 65     94%     29.99        
Jul 12 03:35 NW 3 10 Clear CLR 67 65     95%     30        
Jul 12 03:15 Calm 10 Clear CLR 67 65     93%     30        
Jul 12 02:55 Calm 10 Clear CLR 67 65     94%     30.01        
Jul 12 02:35 Calm 10 Clear CLR 67 65     93%     30.01        
Jul 12 02:15 Calm 10 Clear CLR 68 65     91%     30.01        
Jul 12 01:55 Calm 10 Clear CLR 69 66     89%     30.01        
Jul 12 01:35 Calm 10 Clear CLR 69 66     91%     30.01        
Jul 12 01:15 Calm 10 Clear CLR 69 66     91%     30        
Jul 12 00:55 Calm 10 Clear CLR 69 65     87%     30        
Jul 12 00:35 Calm 10 Clear CLR 70 66     87%   71 30        
Jul 12 00:15 Calm 10 Clear CLR 71 67     87%   71 29.99        
Jul 11 23:55 N 3 10 Clear CLR 71 67     87%   72 29.99        
Jul 11 23:35 Calm 10 Clear CLR 71 67     88%   72 29.99        
Jul 11 23:15 N 3 10 Clear CLR 71 67     88%   72 29.99        
Jul 11 22:55 N 3 10 Clear CLR 72 67     84%   73 29.98        
Jul 11 22:35 N 3 10 Clear CLR 72 67     85%   73 29.99        
Jul 11 22:15 N 3 10 Clear CLR 73 66     77%   74 29.99        
Jul 11 21:55 NNW 5 10 Clear CLR 73 67     81%   74 29.98        
Jul 11 21:35 NNE 5 10 Clear CLR 75 65     72%   75 29.98        
Jul 11 21:15 N 6 10 Clear CLR 75 66     75%   76 29.98        
Jul 11 20:55 N 6 10 Clear CLR 76 66     72%   76 29.98        
Jul 11 20:35 N 7 10 Clear CLR 77 66     69%   78 29.98        
Jul 11 20:15 N 7 10 Clear CLR 79 66     63%   80 29.98        
Jul 11 19:55 N 5 10 Clear CLR 81 66     60%   84 29.98        
Jul 11 19:35 NNE 7 10 Clear CLR 83 64     53%   84 29.99        
Jul 11 19:15 N 8 10 Clear CLR 84 65     53%   85 29.99        
Jul 11 18:55 NNW 10 10 Clear CLR 85 64     50%   86 29.99        
Jul 11 18:35 NNW 9 10 Clear CLR 85 62     47%   85 29.99        
Jul 11 18:15 NNW 10 10 Clear CLR 85 63     48%   86 29.99        
Jul 11 17:55 NNW 12 10 Clear CLR 86 63     47%   87 30        
Jul 11 17:35 NNW 12 10 Clear CLR 86 62     46%   86 30        
Jul 11 17:15 NNW 15 10 Clear CLR 86 64     48%   88 30.01        
Jul 11 16:55 N 10 10 Clear CLR 86 64     48%   88 30.01        
Jul 11 16:35 N 14 10 Clear CLR 86 64     48%   87 30.02        
Jul 11 16:15 N 11 10 Clear CLR 86 64     48%   88 30.02        
Jul 11 15:55 N 13 10 Clear CLR 86 64     47%   87 30.03        
Jul 11 15:35 NNW 12 10 Clear CLR 86 65     51%   88 30.03        
Jul 11 15:15 NW 8 10 Clear CLR 85 66     52%   88 30.04        
Jul 11 14:55 NNW 8 10 Clear CLR 85 65     52%   87 30.04        
Jul 11 14:35 N 10 10 Partly Cloudy SCT049 85 65     52%   86 30.05        
Jul 11 14:15 N 8 10 Clear CLR 85 65     53%   87 30.05        
Jul 11 13:55 N 14 10 Clear CLR 84 65     53%   86 30.06        
Jul 11 13:35 NNW 10 10 Clear CLR 84 66     54%   86 30.06        
Jul 11 12:55 N 7 10 Clear CLR 83 65     54%   85 30.08        
Jul 11 12:35 NNE 9 10 Clear CLR 83 65     56%   84 30.08        
Jul 11 11:55 NE 13 10 Clear CLR 82 66     58%   84 30.09        
Jul 11 11:35 N 11 10 Clear CLR 82 66     59%   84 30.1        
Jul 11 10:55 NNE 10 10 Clear CLR 81 66     60%   83 30.1        
Jul 11 10:35 NNE 11 10 Clear CLR 80 66     61%   82 30.11        
Jul 11 10:15 NE 12 10 Clear CLR 79 66     63%   80 30.12        
Jul 11 09:55 NE 11 10 Clear CLR 79 67     66%   80 30.12        
Jul 11 09:35 NE 9 10 Clear CLR 78 66     68%   79 30.13        
Jul 11 09:15 NNE 9 10 Clear CLR 76 65     69%   77 30.12        
Jul 11 08:55 NNE 11 10 Clear CLR 76 66     73%   76 30.12        
Jul 11 08:35 NNE 7 10 Clear CLR 75 67     76%   75 30.12        
Jul 11 08:15 N 7 10 Clear CLR 73 67     82%   74 30.12        
Jul 11 07:55 N 7 10 Clear CLR 72 67     86%   72 30.12        
Jul 11 07:35 N 7 10 Clear CLR 70 66     88%   71 30.12        
Jul 11 07:15 NNE 7 10 Clear CLR 69 66     90%     30.11        
Notice The following observation data may not be complete
Jul 11 06:55   10 Clear CLR          %              
Jul 11 06:35 NNE 6 10 Clear CLR 68 65     89%     30.11        
Jul 11 06:15 N 7 10 Clear CLR 68 64     88%     30.1        
Jul 11 05:55 NNE 6 10 Clear CLR 68 65     91%     30.1        
Jul 11 05:35 N 8 10 Clear CLR 68 65     91%     30.09        
Jul 11 04:55 NNE 8 10 Clear CLR 69 65     87%     30.08        
Jul 11 04:35 N 8 10 Clear CLR 70 65     84%   71 30.07        
Jul 11 04:15 N 10 10 Clear CLR 71 65     83%   72 30.06        
Jul 11 03:55 N 7 10 Clear CLR 70 66     87%   71 30.06        
Jul 11 03:35 N 7 10 Clear CLR 71 67     87%   72 30.07        
Jul 11 03:15 N 6 10 Clear CLR 71 67     87%   72 30.08        
Jul 11 02:55 N 7 10 Clear CLR 72 67     85%   73 30.08        
Jul 11 02:35 N 7 10 Clear CLR 72 68     86%   73 30.08        
Jul 11 02:15 N 8 10 Clear CLR 73 69     88%   74 30.09        
Jul 11 01:55 NNE 5 10 Partly Cloudy SCT049 73 70     90%   74 30.09        
Jul 11 01:35 NNE 6 10 Partly Cloudy SCT047 74 70     88%   75 30.09        
Jul 11 01:15 N 8 10 Partly Cloudy SCT045 74 70     87%   76 30.09        
Jul 11 00:55 N 5 10 Partly Cloudy SCT042 74 72     93%   76 30.09        
Jul 11 00:35 N 6 10 Mostly Cloudy BKN042 75 72     90%   76 30.09        
Jul 11 00:15 NNE 6 10 Mostly Cloudy BKN042 75 72     90%   77 30.09        
Jul 10 23:55 N 7 10 Partly Cloudy SCT038 75 72     89%   77 30.09        
Jul 10 23:35 N 7 10 Clear CLR 76 72     89%   77 30.09        
Jul 10 23:15 NNE 7 10 Clear CLR 76 72     88%   78 30.08        
Jul 10 22:55 N 7 10 Clear CLR 77 72     86%   79 30.09        
Jul 10 22:35 N 5 10 Partly Cloudy SCT080 78 73     84%   80 30.09        
Jul 10 22:15 NNW 6 10 Mostly Cloudy BKN080 79 74     85%   82 30.08        
Notice The following observation data may not be complete
Jul 10 21:55   10 Clear CLR          %              
Jul 10 21:35 Calm 10 Clear CLR 78 76     92%   80 30.06        
Jul 10 21:15 Calm 10 Clear CLR 80 73     79%   85 30.06        
Jul 10 20:55 Calm 10 Clear CLR 80 74     82%   84 30.05        
Jul 10 20:35 Calm 10 Clear CLR 80 74     84%   84 30.06        
Jul 10 20:15 Calm 10 Clear CLR 81 75     84%   87 30.05        
Jul 10 19:55 S 6 10 Clear CLR 82 75     78%   89 30.05        
Jul 10 19:35 SSE 6 10 Clear CLR 84 74     74%   91 30.04        
Jul 10 19:15 ESE 6 10 Clear CLR 84 74     71%   92 30.04        
Jul 10 18:55 E 5 10 Clear CLR 85 73     66%   92 30.04        
Jul 10 18:35 E 7 10 Clear CLR 86 73     65%   93 30.05        
Jul 10 18:15 ENE 8 10 Clear CLR 86 73     64%   93 30.04        
Jul 10 17:55 NNE 6 10 Clear CLR 86 72     63%   93 30.04        
Jul 10 17:35 NE 8 10 Clear CLR 86 72     64%   93 30.03        
Jul 10 17:15 NE 7 10 Clear CLR 86 73     65%   93 30.03        
Jul 10 16:55 Calm 10 Clear CLR 85 72     66%   91 30.03        
Notice The following observation data may not be complete
Jul 10 16:35   10 Clear CLR          %              
Jul 10 16:15 Calm 10 Clear CLR 83 72     69%   89 30.03        
Jul 10 15:15 SSE 5 10 Clear CLR 81 71     72%   85 30.03        
Jul 10 14:35 SE 6 10 Clear CLR 81 71     72%   85 30.05   0    
Jul 10 14:15 E 6 10 Clear CLR 81 72     74%   85 30.03   0    
Jul 10 13:55 ENE 6 10 Clear CLR 79 72     77%   83 30.05        
Jul 10 13:30 NE 5 10 Clear CLR 76 71     84%   78 30.05        
Jul 10 13:15 N 6 10 Clear CLR 74 71     88%   76 30.05        
Jul 10 12:55 N 7 10 Clear CLR 73 70     90%   74 30.08        
Jul 10 12:35 E 9 10 Clear   73 69     89%   74 30.06        
Jul 10 12:15 ENE 6 10 Clear   73 69     89%   74 30.09        
Jul 10 11:55 E 10 10 Clear   72 69     90%   74 30.1   0    
Jul 10 11:35   10 Mostly Cloudy SCT027 SCT050 BKN090 72 70     93%   73 30.11   0    
Notice The following observation data may not be complete
Jul 10 11:15 NNE 24 1.5 Thunderstorms and Heavy Rain and Fog/Mist SCT004 BKN021 OVC033   70      %     30.12   0    
Jul 10 10:55   1.5 Thunderstorms and Heavy Rain and Fog/Mist SCT019 BKN033 OVC040 72 69     92%   73 30.13   0    
Jul 10 10:35 NW 5 10 Mostly Cloudy SCT040 BKN047 BKN065 87 78     73%   100 30.07        
Jul 10 10:15 NW 5 10 Partly Cloudy SCT043 SCT050 SCT065 86 78     77%   98 30.05        
Jul 10 09:55 W 3 10 Partly Cloudy SCT041 SCT047 SCT055 86 78     77%   97 30.07        
Jul 10 09:35 ESE 5 10 Partly Cloudy SCT055 85 77     78%   95 30.07        
Jul 10 09:15 NNE 5 10 Partly Cloudy SCT046 SCT055 84 77     80%   93 30.06        
Jul 10 08:55 N 6 10 Cloudy BKN050 OVC055 83 77     82%   91 30.06        
Jul 10 08:35 Calm 10 Partly Cloudy SCT050 83 76     81%   90 30.05        
Jul 10 08:15 Calm 10 Clear CLR 81 75     83%   87 30.04        
Jul 10 07:55 Calm 10 Clear CLR 80 76     87%   86 30.02        
Jul 10 07:35 Calm 10 Clear CLR 79 76     91%   83 30.01        
Jul 10 07:15 S 5 10 Clear CLR 78 76     95%   80 30        
Jul 10 06:55 S 3 10 Clear CLR 77 76     95%   79 29.99        
Jul 10 06:35 S 5 7 Clear CLR 76 75     96%   78 29.98        
Jul 10 06:15 S 6 7 Clear CLR 76 76     97%   78 29.98        
Jul 10 05:55 S 7 5 Fog/Mist CLR 76 76     97%   78 29.98        
Jul 10 05:35 S 7 7 Clear CLR 77 76     97%   79 29.97        
Jul 10 05:15 S 5 7 Clear CLR 77 76     96%   79 29.98        
Jul 10 04:55 S 6 10 Clear CLR 77 76     96%   79 29.98        
Jul 10 04:35 S 6 10 Clear CLR 77 76     96%   79 29.98        
Jul 10 04:15 SSE 5 10 Clear CLR 77 76     96%   79 29.97        
Jul 10 03:55 SSE 5 10 Clear CLR 77 76     96%   79 29.98        
Jul 10 03:35 SSE 5 10 Clear CLR 78 76     95%   80 29.98        
Jul 10 03:15 SE 3 10 Clear CLR 78 76     94%   81 29.97        
Jul 10 02:55 SE 3 7 Clear CLR 78 76     94%   82 29.98        
Jul 10 02:35 SE 5 10 Clear CLR 78 76     93%   82 29.98        
Jul 10 01:55 S 5 10 Clear CLR 79 77     93%   83 29.98        
Jul 10 01:35 S 3 10 Clear CLR 79 77     94%   83 29.98        
Jul 10 01:15 S 6 10 Clear CLR 79 77     93%   84 29.97        
Jul 10 00:55 S 6 10 Clear CLR 79 77     93%   84 29.97        
Jul 10 00:35 S 6 7 Clear CLR 80 77     93%   85 29.97        
Jul 10 00:15 S 6 10 Clear CLR 80 77     91%   86 29.97        
Jul 09 23:55 S 6 10 Clear CLR 80 77     90%   87 29.96        
Jul 09 23:35 SSE 6 10 Clear CLR 81 77     89%   88 29.96        
Jul 09 23:15 SSE 6 10 Clear CLR 81 77     88%   89 29.96        
Jul 09 22:55 SSE 7 10 Clear CLR 82 78     87%   90 29.96        
Jul 09 22:35 SSE 7 10 Clear CLR 82 78     86%   91 29.96        
Jul 09 22:15 SSE 6 10 Partly Cloudy SCT040 82 78     85%   91 29.95        
Jul 09 21:55 SE 8 10 Partly Cloudy SCT040 83 78     83%   94 29.94        
Jul 09 21:35 SE 8 10 Clear CLR 84 78     82%   94 29.93        
Jul 09 21:15 SE 7 10 Clear CLR 84 78     83%   95 29.93        
Jul 09 20:55 SE 6 10 Clear CLR 85 78     82%   96 29.92        
Jul 09 20:35 SE 6 10 Clear CLR 86 78     78%   98 29.92        
Jul 09 20:15 SSE 6 10 Clear CLR 87 78     76%   99 29.91        
Jul 09 19:55 SSE 8 10 Clear CLR 88 78     72%   101 29.91        
Jul 09 19:35 SSE 8 10 Clear CLR 89 78     71%   102 29.9        
Jul 09 19:15 SSE 9 10 Clear CLR 89 78     69%   103 29.9        
Jul 09 18:55 SSE 9 10 Clear CLR 90 78     68%   104 29.9        
Jul 09 18:35 S 12 10 Clear CLR 90 78     67%   104 29.9        
Jul 09 17:35 SSE 13 10 Clear CLR 91 78     65%   106 29.9        
Jul 09 17:15 SSE 14 10 Clear CLR 91 78     65%   106 29.9        
Jul 09 16:55 SSE 14 10 Clear CLR 91 78     65%   106 29.9        
Jul 09 16:35 SSE 14 10 Clear CLR 91 76     63%   103 29.91        
Jul 09 16:15 SSE 12 10 Clear CLR 91 77     65%   105 29.91        
Jul 09 15:55 SSE 12 10 Clear CLR 90 76     64%   103 29.91        
Jul 09 15:35 S 13 10 Clear CLR 90 77     66%   104 29.91        
May 15 13:35 WSW 10 10 Mostly Cloudy BKN034 BKN039 BKN060 80 69     69%   83 29.98        
May 15 04:15 SE 14 10 Clear CLR 63 61     93%     29.87        
May 14 22:35   5 Thunderstorms and Haze BKN050 BKN060 BKN120 74 62     66%   75 29.92        
May 14 11:55 SSW 21 10 Clear and Windy CLR 85 70     61%   90 29.92        
May 14 11:15 S 24 10 Clear and Windy CLR 84 70     63%   88 29.92        
May 14 10:55 SSW 21 10 Clear and Windy CLR 81 69     66%   84 29.93        
May 14 08:55 S 13 10 Clear CLR 74 67     80%   75 29.94        
May 14 06:35 S 9 10 Clear CLR 71 66     84%   71 29.91        
Notice The following observation data may not be complete
May 14 00:55   10 Clear CLR          %              
May 13 19:55 S 14 10 Clear CLR 81 63     55%   82 29.89        
May 13 08:55 S 16 10 Clear CLR 76 69     78%   77 29.98        
May 13 06:35 S 7 10 Clear CLR 67 65     93%     29.96        
May 13 02:15 SSE 6 10 Clear CLR 67 64     90%     29.95        
May 13 00:35 S 3 10 Clear CLR 69 64     86%     29.97        
May 12 21:15 S 9 10 Mostly Cloudy BKN041 77 66     70%   78 29.91        
May 12 16:15 S 21 10 Clear and Windy   83 69     62%   87 29.88        
May 12 04:35 SSE 10 10 Clear CLR 69 62     78%     29.83        
May 12 01:55 S 14 10 Clear CLR 73 63     72%   73 29.8        
May 11 14:15 S 22 10 Clear and Windy CLR 83 64     53%   85 29.77        
May 11 09:35 SSW 23 10 Clear and Windy CLR 74 62     66%   74 29.8        
Jun 12 08:15 S 17 10 Clear CLR 73 68     83%   74 29.92        
Jun 12 07:12 SSE 10 10 Clear CLR 72 64     78%   72 29.91        
Jun 12 05:55 S 10 10 Clear CLR 70 63     78%     29.89        
Jun 12 05:12 S 12 10 Clear CLR 72 63     73%   72 29.88        
Jun 12 02:12 SSE 10 10 Clear CLR 72 64     78%   72 29.88        
Jun 12 01:52 SSE 10 10 Clear CLR 72 64     78%   72 29.89        
Notice The following observation data may not be complete
Jun 12 00:15   10 Clear CLR          %              
Notice The following observation data may not be complete
Jun 11 23:15   10 Clear CLR          %              
Notice The following observation data may not be complete
Jun 11 22:47   10 Clear CLR          %              
Notice The following observation data may not be complete
Jun 11 21:42   10 Clear CLR          %              
Jun 11 21:07 SSE 14 10 Clear CLR 79 64     61%   79 29.84        
Jun 11 19:27 SSE 15 10 Clear CLR 82 66     58%   85 29.83        
Notice The following observation data may not be complete
Jun 11 18:42   10 Clear CLR          %              
Jun 11 18:12 SSE 21 10 Clear and Windy CLR 84 66     55%   87 29.83        
Jun 11 17:27 SSE 20 10 Clear and Windy CLR 86 66     52%   88 29.84        
Jun 11 17:12 SSE 26 10 Clear and Breezy CLR 86 66     52%   88 29.84        
Jun 11 16:32 S 24 10 Clear and Windy CLR 86 66     52%   88 29.84        
Jun 11 15:17 SSE 24 10 Partly Cloudy and Windy SCT043 88 66     49%   90 29.86        
Notice The following observation data may not be complete
Jun 11 15:15   10 Partly Cloudy SCT043          %              
Jun 11 15:12 SSE 26 10 Clear and Breezy   88 66     49%   90 29.86        
Jun 11 14:52 S 22 10 Clear and Windy CLR 88 66     49%   90 29.86        
Jun 11 12:42 S 20 10 Clear and Windy CLR 86 64     49%   88 29.87        
Notice The following observation data may not be complete
Jun 11 11:47   10 Clear CLR          %              
Jun 11 11:32 S 23 10 Clear and Windy CLR 84 64     52%   86 29.87        
Jun 11 10:42 S 20 10 Clear and Windy CLR 82 64     55%   84 29.86        
Jun 11 10:07 S 21 10 Clear and Windy CLR 81 64     58%   82 29.87        
Jun 11 08:02 S 18 10 Clear CLR 73 63     69%   74 29.87        
Jun 11 07:12 SSE 17 10 Clear CLR 72 63     73%   72 29.87        
Jun 11 07:07 SSE 16 10 Clear CLR 72 63     73%   72 29.86        
Jun 11 06:52 SSE 16 10 Clear CLR 72 63     73%   72 29.86        
Jun 11 05:12 SSE 13 10 Clear CLR 72 63     73%   72 29.85        
Jun 11 04:32 S 14 10 Clear CLR 72 63     73%   72 29.85        
Jun 11 02:42 S 16 10 Clear   73 63     69%   74 29.84        
Jun 11 02:32 S 15 10 Clear CLR 73 63     69%   74 29.85        
Jun 11 01:15 S 20 10 Clear and Windy CLR 73 63     69%   74 29.84        
Jun 11 00:55 S 16 10 Clear CLR 73 63     69%   74 29.85        
Jun 11 00:15 S 16 10 Clear CLR 73 63     69%   74 29.85        
Jun 10 22:22 SSE 14 10 Clear CLR 77 64     65%   77 29.83        
Jun 10 22:07 S 17 10 Clear   77 64     65%   77 29.82        
Jun 10 21:12 SSE 14 10 Clear CLR 79 64     61%   79 29.8        
Jun 10 18:35 S 17 10 Clear CLR 82 64     55%   84 29.77        
Jun 10 18:27 SSE 22 10 Partly Cloudy and Windy SCT040 84 66     55%   87 29.77        
Jun 10 18:17 SSE 24 10 Clear and Windy   84 66     55%   87 29.77        
Jun 10 17:02 SSE 23 10 Partly Cloudy and Windy SCT040 84 66     55%   87 29.77        
Jun 10 13:22 SSE 23 10 Mostly Cloudy and Windy BKN036 82 64     55%   84 29.83        
Jun 10 13:12 S 17 10 Mostly Cloudy BKN036 82 64     55%   84 29.84        
Jun 10 11:07 S 22 10 Clear and Windy CLR 81 64     58%   82 29.84        
Jun 10 09:42 S 23 10 Clear and Windy CLR 75 63     65%   75 29.86        
Notice The following observation data may not be complete
Jun 10 09:15   10 Clear CLR          %              
Notice The following observation data may not be complete
Jun 10 07:42   10 Clear CLR          %              
Jun 10 06:55 S 13 10 Clear CLR 68 61     78%     29.85        
Jun 10 02:57 SSE 7 10 Clear CLR 64 61     88%     29.82        
Jun 10 01:42 SSE 7 10 Clear CLR 66 59     78%     29.84        
Jun 10 01:32 SSE 7 10 Clear CLR 66 59     78%     29.84        
Jun 10 01:17 SSE 8 10 Clear CLR 66 59     78%     29.84        
Notice The following observation data may not be complete
Jun 10 00:47   10 Clear CLR          %              
Notice The following observation data may not be complete
Jun 09 21:35 SSE 8 10 Clear CLR   59      %     29.84        
Notice The following observation data may not be complete
Jun 09 20:47   10 Clear CLR          %              
Jun 09 20:12 SSE 9 10 Clear CLR 75 61     61%   75 29.84        
Jun 09 19:07 SSE 12 10 Clear CLR 81 57     45%   81 29.84        
Notice The following observation data may not be complete
Jun 09 18:47   10 Clear CLR          %              
Jun 09 17:26 SSE 14 10 Clear CLR 82 57     42%   82 29.85        
Jun 09 16:52 SSE 15 10 Clear CLR 82 57     42%   82 29.86        
Jun 09 16:22 SSE 14 10 Partly Cloudy SCT050 82 57     42%   82 29.87        
Notice The following observation data may not be complete
Jun 09 16:15   10 Partly Cloudy SCT050          %              
Jun 09 15:15 SSE 14 10 Clear CLR 82 57     42%   82 29.88        
Jun 09 15:02 SSE 16 10 Clear CLR 82 57     42%   82 29.88        
Jun 09 14:52 S 13 10 Partly Cloudy SCT050 82 57     42%   82 29.88        
Notice The following observation data may not be complete
Jun 09 13:47   10 Partly Cloudy SCT050          %              
Notice The following observation data may not be complete
Jun 09 08:55   10 Clear CLR          %              
Jun 09 07:15 Calm 10 Clear CLR 61 57     88%     29.93        
Notice The following observation data may not be complete
Jun 09 04:57   10 Clear CLR          %              
Jun 09 02:07 Calm 10 Clear CLR 61 55     82%     29.9        
Jun 09 01:07 Calm 10 Clear CLR 63 57     83%     29.92        
Jun 08 23:42 Calm 10 Clear CLR 64 57     77%     29.93        
Notice The following observation data may not be complete
Jun 08 22:42   10 Clear CLR          %              
Jun 08 19:32 ESE 6 10 Clear   79 52     39%   78 29.91        
Jun 08 19:17 ESE 6 10 Clear CLR 79 50     37%   78 29.92        
Jun 08 19:02 SSE 3 10 Clear CLR 79 48     34%   78 29.92        
Jun 08 18:52 SSE 6 10 Clear CLR 81 50     34%   80 29.92        
Jun 08 15:02 SSE 5 10 Clear CLR 81 45     28%   80 29.99        
Jun 08 14:17 SSW 6 10 Clear CLR 81 46     30%   80 30        
Jun 08 12:27 S 6 10 Clear CLR 77 46     34%   76 30.04        
Jun 08 11:52 SSE 6 10 Clear CLR 77 46     34%   76 30.05        
Notice The following observation data may not be complete
Jun 08 10:57   10 Clear CLR          %              
Jun 08 08:55 ENE 3 10 Clear CLR 68 57     68%     30.07        
Jun 08 08:42 Calm 10 Clear CLR 68 59     73%     30.07        
Jun 08 08:27 Calm 10 Clear   66 57     73%     30.07        
Jun 08 07:55 Calm 10 Clear CLR 63 55     77%     30.07        
Jun 08 06:57 Calm 10 Clear CLR 55 54     94%     30.06        
Jun 07 21:27 ENE 3 10 Clear CLR 70 54     56%     30.03        
Jun 07 21:17 ENE 3 10 Clear CLR 72 54     53%   71 30.03        
Jun 07 21:12 ENE 3 10 Clear CLR 72 54     53%   71 30.03        
Jun 07 18:07 ENE 9 10 Clear CLR 79 48     34%   78 30.03        
Jun 07 17:07 E 7 10 Clear CLR 81 46     30%   80 30.04        
Notice The following observation data may not be complete
Jun 07 15:42   10 Clear CLR          %              
Notice The following observation data may not be complete
Jun 07 14:42   10 Clear CLR          %              
Jun 07 13:37 ENE 5 10 Clear CLR 79 45     30%   78 30.07        
Jun 07 13:35 E 5 10 Clear CLR 77 43     30%   76 30.07        
Jun 07 12:02 NE 9 10 Clear CLR 77 46     34%   76 30.09        
Jun 07 11:22 NE 8 10 Clear CLR 77 46     34%   76 30.09        
Jun 07 10:47 NNE 10 10 Clear CLR 75 46     36%   74 30.09        
Jun 07 09:35 ENE 8 10 Clear CLR 72 50     46%   71 30.09        
Jun 07 09:02 ENE 8 10 Clear CLR 70 52     53%     30.08        
Jun 06 15:15 NNE 11 10 Clear CLR 84 55     37%   83 29.94        
Jun 06 14:12 NNE 16 10 Clear CLR 84 57     40%   83 29.95        
Jun 06 13:57 N 13 10 Clear CLR 84 55     37%   83 29.96        
Notice The following observation data may not be complete
Jun 06 12:42   10 Clear CLR          %              
Jun 06 12:37 NNE 13 10 Clear CLR 84 57     40%   83 29.96        
Jun 06 11:55 NNE 9 10 Clear CLR 81 59     48%   81 29.97        
Jun 06 11:32 NE 9 10 Clear CLR 81 63     54%   82 29.96        
Jun 06 09:02 NNE 7 10 Clear CLR 73 61     65%   73 29.95        
Jun 06 08:02 N 6 10 Clear CLR 70 61     73%     29.94        
Jun 06 07:42 N 3 10 Clear CLR 70 61     73%     29.93        
Jun 06 07:35 N 5 10 Clear CLR 68 61     78%     29.94        
Jun 06 06:55 N 5 10 Clear CLR 64 61     88%     29.92        
Jun 06 05:55 N 6 10 Clear CLR 63 61     94%     29.91        
Notice The following observation data may not be complete
Jun 06 04:52   10 Clear CLR          %              
Notice The following observation data may not be complete
Jun 06 02:57   10 Clear CLR          %              
Jun 06 02:55 Calm 10 Clear CLR 68 63     83%     29.89        
Jun 06 00:55 Calm 10 Clear CLR 68 64     88%     29.88        
Jun 05 22:42 W 3 10 Clear CLR 73 66     78%   74 29.87        
Jun 05 22:37 Calm 10 Clear   73 66     78%   74 29.87        
Jun 05 21:55 Calm 10 Clear   73 66     78%   74 29.86        
Jun 05 19:37 E 6 10 Clear CLR 84 63     48%   85 29.83        
Jun 05 18:22 ENE 12 10 Clear CLR 86 61     43%   86 29.81        
Jun 05 17:22 NE 9 10 Clear CLR 88 61     40%   88 29.8        
Notice The following observation data may not be complete
Jun 05 14:15   10 Clear CLR          %